Regional Weather Roundup
Issued by NWS

Home | Current Version | Previous Version | Graphics & Text | Print | Product List | Glossary Off
Versions: 1 2 3 4 5 6 7 8 9 10 11 12 13 14 15 16 17 18 19 20 21 22 23 24 25 26 27 28 29 30 31 32 33 34 35 36 37 38 39 40 41 42 43 44 45 46 47 48 49 50

000
ASUS43 KMPX 021401
RWRMN
WEATHER ROUNDUP FOR MINNESOTA
NATIONAL WEATHER SERVICE TWIN CITIES/CHANHASSEN MN
900 AM CDT THU OCT 02 2014


NOTE: "FAIR" INDICATES FEW OR NO CLOUDS BELOW 12,000 FEET WITH NO
SIGNIFICANT WEATHER AND/OR OBSTRUCTIONS TO VISIBILITY. N/A MEANS
CURRENT SKY AND/OR WEATHER CONDITIONS ARE NOT AVAILABLE.

MNZ060>063-068>070-021500-
   Twin Cities Metro

CITY           SKY/WX    TMP DP  RH WIND       PRES   REMARKS
TWIN CITIES    CLOUDY    58  55  90 N6        29.84F
ST PAUL        CLOUDY    59  57  93 CALM      29.85S FOG
CRYSTAL        CLOUDY    59  53  80 E3        29.84R
LAKEVILLE      CLOUDY    55  55 100 N3        29.84F FOG
EDEN PRAIRIE   CLOUDY    59  56  89 CALM      29.84S FOG
SOUTH ST PAUL  CLOUDY    59  58  94 N3        29.84F FOG
LAKE ELMO      CLOUDY    57  57 100 CALM      29.86S FOG
$$
MNZ001>005-007-008-013>017-022>024-027-028-021500-
   Northwest Minnesota

CITY           SKY/WX    TMP DP  RH WIND       PRES   REMARKS
BEMIDJI        PTSUNNY   50  49  94 W7        29.82S
HALLOCK        PTSUNNY   46  45  93 CALM      29.80S
ROSEAU         CLOUDY    50  45  81 W3        29.79F
WARROAD        CLOUDY    48  45  87 W7        29.80S
THIEF RVR FALL CLOUDY    48  46  93 CALM      29.81F
CROOKSTON      CLOUDY    48  46  93 CALM      29.83S
FOSSTON        PTSUNNY   46  46 100 CALM      29.83F
DETROIT LAKES  PTSUNNY   50  46  87 NW5       29.85S
PARK RAPIDS    MOSUNNY   49  48  97 W6        29.84S
MAHNOMEN       PTSUNNY   46  45  97 CALM      29.84S
$$
MNZ006-009>011-018-025>026-021500-
   North Central Minnesota

CITY           SKY/WX    TMP DP  RH WIND       PRES   REMARKS
BAUDETTE       CLOUDY    51  48  89 VRB3      29.79S
FLAG ISLAND    CLOUDY    50  46  87 W9        29.77R
INTL FALLS     CLOUDY    55  51  86 W6        29.78F
WASKISH        PTSUNNY   54  52  94 W8          N/A
BIG FORK       CLOUDY    54  52  94 SW5       29.82R
LONGVILLE      FOG       50  48  93 CALM      29.83R VSB 1/4
GRAND RAPIDS   CLOUDY    52  48  87 S3        29.83S
CRANE LAKE     CLOUDY    54  52  94 S3        29.81R
ORR            CLOUDY    52  50  93 CALM      29.79S FOG
COOK           CLOUDY    52  52 100 S3        29.83R FOG
WALKER         FAIR      48  47  99 CALM      29.83S
$$
MNZ012-019>021-037-021500-
   Northeast Minnesota

CITY           SKY/WX    TMP DP  RH WIND       PRES   REMARKS
DULUTH         CLOUDY    53  50  89 VRB3      29.85R FOG
ELY            CLOUDY    54  52  94 S5        29.82R
HIBBING        CLOUDY    54  51  90 SW3       29.83R
DULUTH HARBOR  CLOUDY    55  52  88 CALM      29.85S
TWO HARBORS    CLOUDY    52  46  82 CALM      29.83S
SILVER BAY     CLOUDY    52  52 100 CALM      29.83R
GRAND MARAIS     N/A     51  50  96 CALM      29.84F
G MARAIS ARPRT CLOUDY    50  46  87 CALM      29.84S
$$
MNZ029>031-032-039>041-046>048-054>057-064-021500-
   West Central Minnesota

CITY           SKY/WX    TMP DP  RH WIND       PRES   REMARKS
FERGUS FALLS   PTSUNNY   48  46  93 CALM      29.86F
WHEATON        CLOUDY    50  46  87 W3        29.88F
MORRIS         CLOUDY    50  48  93 N5        29.86S
ALEXANDRIA     PTSUNNY   51  48  89 NW8       29.87S
ELBOW LAKE     PTSUNNY   48  47  96 CALM      29.86S
WADENA         MOSUNNY   50  48  93 W6        29.84F
GLENWOOD       CLOUDY    52  50  93 NW6       29.86S
APPLETON       CLOUDY    52  50  93 NW3       29.86F
BENSON         CLOUDY    50  48  93 N5        29.86F
ORTONVILLE     CLOUDY    52  48  87 CALM      29.87R
MADISON        DRIZZLE   55  52  88 NW3       29.87F
WILLMAR        FAIR      52  48  87 CALM      29.88R
$$
MNZ033>034-036-042>043-049>051-058-059-021500-
   Central Minnesota

CITY           SKY/WX    TMP DP  RH WIND       PRES   REMARKS
ST CLOUD       CLOUDY    54  51  90 CALM      29.85S FOG
SAUK CENTRE    FAIR      47  47 100 CALM      29.86S
PAYNESVILLE    CLOUDY    47  47 100 CALM      29.86R
AITKIN         CLOUDY    55  50  82 CALM      29.82F
PINE RIVER     MOSUNNY   46  46 100 CALM      29.87S FOG
BRAINERD       FOG       49  49 100 CALM      29.85R VSB 1/4
STAPLES        MOSUNNY   45  45 100 CALM      29.84F
LONG PRAIRIE   FAIR      46  46 100 CALM      29.85S
LITTLE FALLS   FOG       46  46 100 CALM      29.85R VSB<1/4
LITCHFIELD     CLOUDY    54  54 100 CALM      29.87R FOG
BUFFALO        CLOUDY    55  51  86 CALM      29.87R
MAPLE LAKE     CLOUDY    56  55  94 CALM      29.87R FOG
$$
MNZ037-044-045-052-053-021500-
   East Central Minnesota

CITY           SKY/WX    TMP DP  RH WIND       PRES   REMARKS
PRINCETON      CLOUDY    55  54  94 E2        29.85S
MORA           CLOUDY    52  52 100 CALM      29.85F
CAMBRIDGE      PTSUNNY   57  48  72 CALM      29.83S
RUSH CITY      CLOUDY    54  53  94 CALM      29.85S
MOOSE LAKE     CLOUDY    54  52  94 CALM      29.83R
HINCKLEY       CLOUDY    54  52  94 CALM      29.84S
CLOQUET        CLOUDY    54  52  94 CALM      29.84S
MCGREGOR       CLOUDY    54  52  94 SW5       29.85R
$$
MNZ071>073-080-081-089-090-097-098-021500-
   Southwest Minnesota

CITY           SKY/WX    TMP DP  RH WIND       PRES   REMARKS
MONTEVIDEO     CLOUDY    52  50  93 N3        29.88
GRANITE FALLS  CLOUDY    50  50  98 W3        29.89R FOG
CANBY          DRIZZLE   53  49  87 W5        29.89S
MARSHALL       CLOUDY    52  46  82 NW8       29.87S
REDWOOD FALLS  CLOUDY    52  51  97 NW3       29.86S
OLIVIA         CLOUDY    52  50  93 CALM      29.86R
PIPESTONE      LGT RAIN  52  48  87 CALM      29.89R
WINDOM         CLOUDY    54  52  94 N8        29.85F
WORTHINGTON    CLOUDY    52  48  87 NW7       29.88F
JACKSON        CLOUDY    52  50  93 VRB7      29.84F
TRACY          LGT RAIN  53  51  92 NW5       29.88S
SLAYTON        RAIN      52  50  95 CALM      29.89S
$$
MNZ065>067-074>077-082>085-091>093-021500-
   South Central Minnesota

CITY           SKY/WX    TMP DP  RH WIND       PRES   REMARKS
MANKATO        CLOUDY    57  52  82 NE12      29.83F VSB 1/4
NEW ULM        PTSUNNY   54  54 100 NE3       29.85F FOG
ST JAMES       FOG       55  54  94 N6        29.85F VSB 1/4
FAIRMONT       CLOUDY    57  54  88 N8        29.81F VSB 3/4
GLENCOE        CLOUDY    56  56 100 NE3       29.85S FOG
FARIBAULT      FOG       57  57 100 N3        29.84F VSB 1/2
OWATONNA       FOG       61  57  88 CALM      29.84S VSB 3/4
WASECA         CLOUDY    57  54  88 NE7       29.84F FOG
ALBERT LEA     FOG       57  57 100 SE5       29.82F VSB 1/4
$$
MNZ078>079-086>088-094>096-021500-
   Southeast Minnesota

CITY           SKY/WX    TMP DP  RH WIND       PRES   REMARKS
ROCHESTER      FOG       57  56  96 SE5       29.85S VSB<1/4
RED WING       CLOUDY    55  55 100 CALM      29.82S FOG
STANTON        CLOUDY    58  56  93 N3        29.83S FOG
DODGE CENTER   FOG       57  57 100 CALM      29.84S VSB<1/4
WINONA         FOG       55  55 100 CALM      29.84R VSB 3/4
AUSTIN         FOG       57  57 100 CALM      29.83S VSB 1/4
PRESTON        FOG       57  57  98 CALM      29.85S VSB<1/4
$$
ABBREVIATIONS USED IN REMARKS
   TC - TEMPERATURES IN CELSIUS
  WCI - WIND CHILL INDEX
   HX - HEAT INDEX
  VSB - VISIBILITY
$$


USA.gov is the U.S. government's official web portal to all federal, state and local government web resources and services.